VE3KSR Weather Reports


Display with metric or nautical units.
time (UTC)temp
F
wind
direction
speed
MPH
gust
MPH
rain 1hr
in
rain 24hr
in
rain mn
in
humidity
%
barometer
mb
20170424130301 44 98 16.0 20.0 0.03 0.00 0.00 86 1028.6
20170424125758 44 131 17.0 20.0 0.03 0.00 0.00 86 1028.7
20170424125258 44 118 15.0 20.0 0.03 0.00 0.00 86 1028.8
20170424124801 44 117 16.0 20.0 0.03 0.00 0.00 88 1028.8
20170424124258 43 132 18.0 22.0 0.03 0.00 0.00 89 1028.8
20170424123801 43 138 16.0 19.0 0.03 0.00 0.00 88 1028.8
20170424123259 43 111 16.0 20.0 0.03 0.00 0.00 87 1028.7
20170424122758 43 110 17.0 20.0 0.03 0.00 0.00 88 1028.7
20170424122258 43 120 16.0 20.0 0.03 0.00 0.00 87 1028.7
20170424121758 43 121 18.0 22.0 0.03 0.00 0.00 90 1028.8
20170424121300 42 127 19.0 23.0 0.03 0.00 0.00 89 1028.6
20170424120759 42 132 21.0 25.0 0.03 0.00 0.00 90 1028.6
20170424120258 42 135 19.0 23.0 0.03 0.00 0.00 91 1028.6
20170424115758 42 132 17.0 22.0 0.03 0.00 0.00 91 1028.5
20170424115259 42 146 18.0 22.0 0.03 0.00 0.00 91 1028.5
20170424114758 42 121 15.0 20.0 0.03 0.00 0.00 90 1028.4
20170424114258 41 121 17.0 21.0 0.03 0.00 0.00 90 1028.4
20170424113758 41 132 18.0 23.0 0.03 0.00 0.00 89 1028.4
20170424113258 41 127 17.0 21.0 0.03 0.00 0.00 89 1028.4
20170424112758 41 124 18.0 22.0 0.03 0.00 0.00 90 1028.3
20170424112259 41 115 16.0 22.0 0.03 0.00 0.00 89 1028.2
20170424111802 41 110 16.0 19.0 0.03 0.00 0.00 89 1028.2
20170424111300 41 107 15.0 19.0 0.03 0.00 0.00 89 1028.0
20170424110758 41 93 16.0 20.0 0.03 0.00 0.00 88 1027.9
20170424110258 41 118 16.0 19.0 0.03 0.00 0.00 88 1027.9
20170424105758 41 98 16.0 19.0 0.03 0.00 0.00 88 1027.6
20170424105259 40 105 15.0 19.0 0.03 0.00 0.00 88 1027.7
20170424104758 40 103 15.0 19.0 0.03 0.00 0.00 88 1027.6
20170424104258 40 120 15.0 20.0 0.03 0.00 0.00 88 1027.5
20170424103758 40 110 14.0 18.0 0.03 0.00 0.00 88 1027.7
20170424103258 40 108 14.0 16.0 0.03 0.00 0.00 88 1027.7
20170424102758 40 107 14.0 18.0 0.03 0.00 0.00 88 1028.0
20170424102258 39 93 15.0 17.0 0.03 0.00 0.00 87 1027.9
20170424101759 40 118 14.0 17.0 0.03 0.00 0.00 88 1028.0
20170424101258 40 124 14.0 17.0 0.03 0.00 0.00 87 1028.2
20170424100759 40 107 14.0 17.0 0.03 0.00 0.00 87 1028.2
20170424100303 40 103 14.0 17.0 0.03 0.00 0.00 87 1028.1
20170424095758 40 108 14.0 16.0 0.03 0.00 0.00 87 1027.9
20170424095259 40 117 14.0 17.0 0.03 0.00 0.00 87 1028.0
20170424094800 40 113 14.0 16.0 0.03 0.00 0.00 87 1027.9
20170424094258 40 113 14.0 17.0 0.03 0.00 0.00 87 1027.7
20170424093759 40 122 14.0 17.0 0.03 0.00 0.00 86 1027.7
20170424093259 40 115 15.0 18.0 0.03 0.00 0.00 86 1027.6
20170424092759 40 118 14.0 16.0 0.03 0.00 0.00 86 1027.6
20170424092301 40 114 13.0 15.0 0.03 0.00 0.00 86 1027.5
20170424091759 41 117 12.0 16.0 0.03 0.00 0.00 85 1027.4
20170424091258 40 117 13.0 16.0 0.03 0.00 0.00 85 1027.4
20170424090758 41 114 14.0 16.0 0.03 0.00 0.00 85 1027.4
20170424090258 41 118 13.0 15.0 0.03 0.00 0.00 86 1027.5
20170424085801 41 108 14.0 15.0 0.03 0.00 0.00 85 1027.4
20170424085258 41 96 14.0 16.0 0.03 0.00 0.00 84 1027.4
20170424084802 41 91 14.0 16.0 0.03 0.00 0.00 84 1027.3
20170424084258 41 110 12.0 15.0 0.03 0.00 0.00 84 1027.2
20170424083758 41 110 14.0 16.0 0.03 0.00 0.00 84 1027.1
20170424083302 41 103 14.0 15.0 0.03 0.00 0.00 84 1026.8
20170424082759 41 113 14.0 15.0 0.03 0.00 0.00 84 1026.6
20170424082300 41 124 14.0 16.0 0.03 0.00 0.00 84 1026.6
20170424081759 41 94 14.0 16.0 0.03 0.00 0.00 83 1026.5
20170424081259 41 108 13.0 15.0 0.03 0.00 0.00 84 1026.6
20170424080759 41 136 14.0 15.0 0.03 0.00 0.00 84 1026.6
20170424080304 41 128 13.0 15.0 0.03 0.00 0.00 83 1026.6
20170424075759 41 124 13.0 15.0 0.03 0.00 0.00 83 1026.5
20170424075258 41 121 12.0 15.0 0.03 0.00 0.00 83 1026.6
20170424074805 41 118 13.0 15.0 0.03 0.00 0.00 83 1026.5
20170424074259 41 127 12.0 13.0 0.03 0.00 0.00 84 1026.4
20170424073802 41 128 13.0 14.0 0.03 0.00 0.00 84 1026.5
20170424073302 41 120 12.0 14.0 0.03 0.00 0.00 84 1026.4
20170424072759 41 125 12.0 14.0 0.03 0.00 0.00 84 1026.3
20170424072259 41 115 12.0 14.0 0.03 0.00 0.00 84 1026.2
20170424071801 41 104 12.0 14.0 0.03 0.00 0.00 84 1026.2
20170424071259 41 113 13.0 15.0 0.03 0.00 0.00 84 1026.0
20170424070759 41 113 13.0 15.0 0.03 0.00 0.00 84 1025.9
20170424070301 42 115 13.0 14.0 0.03 0.00 0.00 84 1025.9
20170424065759 42 114 13.0 15.0 0.03 0.00 0.00 84 1025.9
20170424065300 41 108 12.0 14.0 0.03 0.00 0.00 84 1025.9
20170424064758 42 111 13.0 15.0 0.03 0.00 0.00 85 1025.9
20170424064301 42 107 14.0 16.0 0.03 0.00 0.00 85 1025.9
20170424063759 42 115 13.0 15.0 0.03 0.00 0.00 86 1025.9
20170424063259 42 110 14.0 16.0 0.03 0.00 0.00 86 1025.9
20170424062759 42 120 13.0 15.0 0.03 0.00 0.00 88 1025.9
20170424062300 42 120 12.0 13.0 0.03 0.00 0.00 88 1026.0
20170424061801 42 118 12.0 14.0 0.03 0.00 0.00 87 1026.0
20170424061259 43 115 12.0 14.0 0.03 0.00 0.00 87 1025.9
20170424060759 43 117 12.0 13.0 0.03 0.00 0.00 86 1026.0
20170424060300 43 117 12.0 13.0 0.03 0.00 0.00 86 1026.0
20170424055800 43 117 12.0 14.0 0.03 0.00 0.00 86 1026.1
20170424055259 43 111 12.0 13.0 0.03 0.00 0.00 84 1026.1
20170424054800 44 110 12.0 13.0 0.03 0.00 0.00 83 1025.9
20170424054259 44 103 11.0 13.0 0.03 0.00 0.00 83 1026.0
20170424053802 44 122 11.0 12.0 0.03 0.00 0.00 83 1026.0
20170424053300 44 103 11.0 12.0 0.03 0.00 0.00 83 1026.0
20170424052759 45 117 10.0 11.0 0.03 0.00 0.00 82 1026.0
20170424052302 45 121 10.0 11.0 0.03 0.00 0.00 81 1025.9
20170424051800 47 77 8.0 10.0 0.03 0.00 0.00 79 1026.0
20170424051308 47 90 8.0 9.0 0.03 0.00 0.00 76 1025.8
20170424050759 48 97 8.0 9.0 0.03 0.00 0.00 74 1025.9
20170424050302 47 97 7.0 8.0 0.03 0.00 0.00 74 1025.8
20170424045759 47 0 0.0 0.0 0.03 0.00 0.00 76 1025.9
20170424045300 49 14 2.0 6.0 0.03 0.00 0.00 71 1025.9
20170424044800 49 0 0.0 0.0 0.03 0.00 0.00 71 1025.7
20170424044259 49 156 8.0 9.0 0.03 0.00 0.00 71 1025.7
20170424043804 49 153 10.0 10.0 0.03 0.00 0.00 70 1025.5
20170424043259 49 152 9.0 10.0 0.03 0.00 0.00 71 1025.5
20170424042759 49 152 9.0 9.0 0.03 0.00 0.00 72 1025.4
20170424042305 49 173 7.0 8.0 0.03 0.00 0.00 73 1025.4
20170424041802 49 180 8.0 8.0 0.03 0.00 0.00 72 1025.4
20170424041301 49 136 7.0 8.0 0.03 0.00 0.00 73 1025.4
20170424040759 49 132 7.0 8.0 0.03 0.00 0.00 73 1025.2
20170424040302 48 169 6.0 7.0 0.03 0.00 0.00 74 1025.2
20170424035801 48 173 5.0 6.0 0.03 0.00 0.00 75 1025.2
20170424035303 48 207 7.0 7.0 0.03 0.00 0.00 73 1025.2
20170424034800 48 211 7.0 7.0 0.03 0.00 0.00 73 1025.0
20170424034259 48 0 0.0 0.0 0.03 0.00 0.00 75 1024.9
20170424033759 48 0 0.0 0.0 0.03 0.00 0.00 75 1025.2
20170424033259 48 100 7.0 7.0 0.03 0.00 0.00 74 1025.0
20170424032802 48 70 7.0 8.0 0.03 0.00 0.00 74 1024.8
20170424032259 48 69 7.0 9.0 0.03 0.00 0.00 74 1024.8
20170424031801 48 69 7.0 8.0 0.03 0.00 0.00 74 1024.8
20170424031259 48 60 6.0 7.0 0.03 0.00 0.00 73 1024.9
20170424030800 48 55 6.0 8.0 0.03 0.00 0.00 73 1024.8
20170424030300 48 45 6.0 7.0 0.03 0.00 0.00 72 1024.8
20170424025800 48 77 6.0 7.0 0.03 0.00 0.00 70 1024.8
20170424025303 49 60 7.0 8.0 0.03 0.00 0.00 70 1024.9
20170424024759 49 87 1.0 5.0 0.03 0.00 0.00 67 1024.9
20170424024301 49 0 0.0 0.0 0.03 0.00 0.00 64 1025.0
20170424023759 49 20 5.0 7.0 0.03 0.00 0.00 61 1024.9
20170424023301 51 8 4.0 8.0 0.03 0.00 0.00 57 1024.9
20170424022801 53 356 7.0 10.0 0.03 0.00 0.00 54 1024.9
20170424022259 54 4 11.0 14.0 0.03 0.00 0.00 48 1024.9
20170424021804 53 349 6.0 10.0 0.03 0.00 0.00 48 1024.8
20170424021300 53 319 6.0 8.0 0.03 0.00 0.00 47 1024.7
20170424020759 53 333 5.0 7.0 0.03 0.00 0.00 47 1024.7
20170424020303 53 0 0.0 0.0 0.03 0.00 0.00 46 1024.7
20170424015800 53 0 0.0 0.0 0.03 0.00 0.00 45 1024.6
20170424015300 53 302 1.0 3.0 0.03 0.00 0.00 45 1024.8
20170424014759 55 347 6.0 7.0 0.03 0.00 0.00 45 1024.5
20170424014300 55 353 8.0 9.0 0.03 0.00 0.00 44 1024.4
20170424013759 56 352 7.0 9.0 0.03 0.00 0.00 44 1024.5
20170424013535 56 333 8.0 9.0 0.03 0.00 0.00 44 1024.5
20170424013259 56 333 8.0 9.0 0.03 0.00 0.00 44 1024.5
20170424012759 56 329 7.0 9.0 0.03 0.00 0.00 43 1024.6
20170424012300 56 323 7.0 8.0 0.03 0.00 0.00 43 1024.5
20170424011759 56 329 7.0 9.0 0.03 0.00 0.00 42 1024.5
20170424011300 56 336 8.0 9.0 0.03 0.00 0.00 42 1024.3
20170424010804 56 329 7.0 9.0 0.03 0.00 0.00 42 1024.3
20170424010259 56 335 7.0 8.0 0.03 0.00 0.00 42 1024.2
20170424005800 56 326 5.0 8.0 0.03 0.00 0.00 42 1024.1
20170424005300 56 332 1.0 5.0 0.03 0.00 0.00 42 1024.1
20170424004759 56 328 7.0 9.0 0.03 0.00 0.00 42 1024.1
20170424004259 56 325 8.0 9.0 0.03 0.00 0.00 41 1024.0
20170424003759 56 332 9.0 11.0 0.03 0.00 0.00 41 1024.1
20170424003259 56 328 9.0 11.0 0.03 0.00 0.00 40 1024.0
20170424002759 56 319 9.0 11.0 0.03 0.00 0.00 40 1023.9
20170424002259 57 321 9.0 11.0 0.03 0.00 0.00 39 1024.0
20170424001759 57 319 9.0 11.0 0.03 0.00 0.00 38 1024.0
20170424001300 57 321 8.0 11.0 0.03 0.00 0.00 38 1023.8
20170424000759 57 308 9.0 11.0 0.03 0.00 0.00 38 1023.6
20170424000259 58 302 10.0 13.0 0.03 0.00 0.00 37 1023.7
20170423235759 58 307 10.0 13.0 0.03 0.00 0.00 39 1023.8
20170423235259 59 281 9.0 12.0 0.03 0.00 0.00 38 1023.8
20170423234800 59 304 11.0 15.0 0.03 0.00 0.00 39 1023.8
20170423234259 59 301 9.0 11.0 0.03 0.00 0.00 38 1023.8
20170423233800 60 301 11.0 14.0 0.03 0.00 0.00 37 1023.8
20170423233259 60 293 12.0 15.0 0.03 0.00 0.00 38 1023.9
20170423232800 60 304 9.0 10.0 0.03 0.00 0.00 39 1024.0
20170423232300 60 312 8.0 11.0 0.03 0.00 0.00 36 1023.7
20170423231800 61 322 10.0 12.0 0.03 0.00 0.00 35 1023.8
20170423231300 61 300 14.0 17.0 0.03 0.00 0.00 35 1023.7
20170423230803 61 305 13.0 17.0 0.03 0.00 0.00 33 1023.7
20170423230300 61 300 10.0 13.0 0.03 0.00 0.00 35 1023.7
20170423225800 61 323 12.0 14.0 0.03 0.00 0.00 35 1023.8
20170423225300 61 287 14.0 17.0 0.03 0.00 0.00 35 1023.8
20170423224802 61 308 14.0 16.0 0.03 0.00 0.00 32 1023.8
20170423224300 61 290 15.0 19.0 0.03 0.00 0.00 33 1023.7
20170423223800 61 293 12.0 15.0 0.03 0.00 0.00 34 1023.8
20170423223300 62 312 12.0 15.0 0.03 0.00 0.00 33 1023.8
20170423222802 62 287 13.0 19.0 0.03 0.00 0.00 32 1023.8
20170423222300 62 333 10.0 13.0 0.03 0.00 0.00 36 1023.8
20170423221800 62 304 14.0 18.0 0.03 0.00 0.00 35 1023.8
20170423221300 62 284 14.0 18.0 0.03 0.00 0.00 34 1023.6
20170423220804 62 277 13.0 17.0 0.03 0.00 0.00 35 1023.7
20170423220300 62 295 13.0 19.0 0.03 0.00 0.00 33 1023.7
20170423215800 62 311 12.0 15.0 0.03 0.00 0.00 35 1023.6
20170423215301 62 284 13.0 18.0 0.03 0.00 0.00 36 1023.7
20170423214801 62 304 15.0 21.0 0.03 0.00 0.00 39 1023.9
20170423214300 62 278 17.0 20.0 0.03 0.00 0.00 34 1023.9
20170423213800 62 298 16.0 19.0 0.03 0.00 0.00 37 1023.9
20170423213300 62 291 12.0 18.0 0.03 0.00 0.00 38 1024.0
20170423212803 62 302 14.0 18.0 0.03 0.00 0.00 36 1024.0
20170423212300 62 297 13.0 15.0 0.03 0.00 0.00 35 1023.9
20170423212055 62 297 12.0 17.0 0.03 0.00 0.00 37 1023.8
20170423211800 62 297 12.0 17.0 0.03 0.00 0.00 37 1023.8
20170423211300 62 293 12.0 15.0 0.03 0.00 0.00 37 1023.9
20170423210803 62 298 14.0 18.0 0.03 0.00 0.00 36 1024.0
20170423210300 62 291 13.0 18.0 0.03 0.00 0.00 38 1024.0
20170423205800 62 308 14.0 17.0 0.03 0.00 0.00 39 1024.0
20170423205300 62 290 15.0 22.0 0.03 0.00 0.00 39 1024.0
20170423204801 62 297 11.0 15.0 0.03 0.00 0.00 36 1024.1
20170423204300 62 311 15.0 18.0 0.03 0.00 0.00 36 1023.9
20170423203800 62 302 11.0 14.0 0.03 0.00 0.00 41 1024.2
20170423203300 62 285 16.0 20.0 0.03 0.00 0.00 38 1024.1
20170423202803 62 281 16.0 20.0 0.03 0.00 0.00 39 1024.3
20170423202300 62 288 16.0 19.0 0.03 0.00 0.00 38 1024.1
20170423201800 62 336 11.0 15.0 0.03 0.00 0.00 42 1024.2
20170423200300 62 318 15.0 18.0 0.03 0.00 0.00 41 1024.4
20170423195800 62 295 15.0 20.0 0.03 0.00 0.00 42 1024.3
20170423195300 62 300 16.0 20.0 0.03 0.00 0.00 42 1024.4
20170423194800 62 276 12.0 17.0 0.03 0.00 0.00 44 1024.4
20170423194300 62 302 17.0 21.0 0.03 0.00 0.00 45 1024.5
20170423193800 61 280 15.0 20.0 0.03 0.00 0.00 41 1024.4
20170423193300 61 288 16.0 22.0 0.03 0.00 0.00 45 1024.5
20170423192803 61 291 15.0 21.0 0.03 0.00 0.00 46 1024.6
20170423192300 61 340 10.0 13.0 0.03 0.00 0.00 45 1024.7
20170423191800 61 298 16.0 20.0 0.03 0.00 0.00 43 1024.7
20170423191300 61 301 14.0 19.0 0.03 0.00 0.00 44 1024.8
20170423190802 61 321 14.0 18.0 0.03 0.00 0.00 44 1025.0
20170423190300 61 322 16.0 20.0 0.03 0.00 0.00 42 1025.0
20170423185800 61 294 12.0 16.0 0.03 0.00 0.00 43 1025.2
20170423185300 61 295 13.0 17.0 0.03 0.00 0.00 43 1025.4
20170423184804 60 305 15.0 20.0 0.03 0.00 0.00 45 1025.3
20170423184300 61 291 13.0 19.0 0.03 0.00 0.00 45 1025.5
20170423183800 61 291 13.0 19.0 0.03 0.00 0.00 45 1025.5
20170423183301 60 295 16.0 22.0 0.03 0.00 0.00 43 1025.5
20170423182802 60 291 17.0 22.0 0.03 0.00 0.00 43 1025.6
20170423182300 61 290 15.0 21.0 0.03 0.00 0.00 46 1025.7
20170423181801 60 295 14.0 20.0 0.03 0.00 0.00 47 1025.8
20170423181301 60 352 11.0 15.0 0.03 0.00 0.00 46 1025.8
20170423180801 59 315 15.0 19.0 0.03 0.00 0.00 44 1025.9
20170423180300 60 295 16.0 21.0 0.03 0.00 0.00 45 1026.0
20170423175800 60 290 17.0 21.0 0.03 0.00 0.00 45 1026.0
20170423175300 60 326 12.0 15.0 0.03 0.00 0.00 43 1026.0
20170423174801 60 294 14.0 18.0 0.03 0.00 0.00 48 1026.2
20170423174300 60 309 15.0 18.0 0.03 0.00 0.00 44 1026.2
20170423173800 60 318 13.0 15.0 0.03 0.00 0.00 46 1026.3
20170423173300 60 309 14.0 17.0 0.03 0.00 0.00 46 1026.3
20170423172801 59 307 15.0 19.0 0.03 0.00 0.00 49 1026.5
20170423172302 59 293 16.0 20.0 0.03 0.00 0.00 49 1026.5
20170423171800 59 281 16.0 20.0 0.03 0.00 0.00 49 1026.6
20170423171300 59 285 14.0 17.0 0.03 0.00 0.00 50 1026.7
20170423170801 58 300 16.0 21.0 0.03 0.00 0.00 51 1026.8
20170423170301 58 295 16.0 21.0 0.03 0.00 0.00 51 1026.9
20170423165800 59 291 14.0 19.0 0.03 0.00 0.00 50 1026.9
20170423165301 58 300 12.0 14.0 0.03 0.00 0.00 50 1026.9
20170423164801 58 294 16.0 19.0 0.03 0.00 0.00 50 1027.0
20170423164301 58 288 12.0 20.0 0.03 0.00 0.00 51 1027.0
20170423163800 58 290 14.0 21.0 0.03 0.00 0.00 49 1027.1
20170423163300 59 308 11.0 14.0 0.03 0.00 0.00 47 1027.2
20170423162803 58 285 11.0 16.0 0.03 0.00 0.00 51 1027.1
20170423162301 57 294 12.0 16.0 0.03 0.00 0.00 50 1027.2
20170423161803 56 291 14.0 19.0 0.03 0.00 0.00 51 1027.2
20170423161301 57 293 14.0 17.0 0.03 0.00 0.00 50 1027.2
20170423160802 57 294 15.0 18.0 0.03 0.00 0.00 49 1027.3
20170423160301 56 287 13.0 16.0 0.03 0.00 0.00 48 1027.2
20170423155801 57 302 12.0 16.0 0.03 0.00 0.00 49 1027.3
20170423155301 56 298 14.0 17.0 0.03 0.00 0.00 48 1027.3
20170423154801 57 284 10.0 17.0 0.03 0.00 0.00 46 1027.4
20170423154301 56 262 12.0 16.0 0.03 0.00 0.00 48 1027.4
20170423153801 56 297 13.0 16.0 0.03 0.00 0.00 49 1027.4
20170423153301 56 300 10.0 13.0 0.03 0.00 0.00 52 1027.4
20170423152802 55 287 12.0 15.0 0.03 0.00 0.00 52 1027.3
20170423152301 54 298 14.0 16.0 0.03 0.00 0.00 54 1027.3
20170423151801 55 307 14.0 16.0 0.03 0.00 0.00 52 1027.2
20170423151301 54 295 12.0 15.0 0.03 0.00 0.00 54 1027.3
20170423150801 54 290 8.0 13.0 0.03 0.00 0.00 55 1027.3
20170423150301 54 287 11.0 15.0 0.03 0.00 0.00 58 1027.2
20170423145802 54 271 11.0 16.0 0.03 0.00 0.00 56 1027.2
20170423145302 53 253 10.0 14.0 0.03 0.00 0.00 60 1027.2
20170423144801 53 277 11.0 14.0 0.03 0.00 0.00 58 1027.0
20170423144301 52 291 10.0 14.0 0.03 0.00 0.00 60 1027.1
20170423143803 52 256 14.0 17.0 0.03 0.00 0.00 60 1026.9
20170423143302 52 260 10.0 14.0 0.03 0.00 0.00 62 1027.0
20170423142803 52 259 12.0 15.0 0.03 0.00 0.00 60 1027.1
20170423142302 52 307 11.0 14.0 0.03 0.00 0.00 60 1027.3
20170423141802 51 294 9.0 12.0 0.03 0.00 0.00 60 1027.6
20170423141301 51 316 10.0 13.0 0.03 0.00 0.00 60 1027.7
20170423140810 50 255 9.0 12.0 0.03 0.00 0.00 64 1027.7
20170423140302 50 291 8.0 11.0 0.03 0.00 0.00 66 1027.9
20170423135803 49 302 11.0 14.0 0.03 0.00 0.00 68 1027.9
20170423135302 49 256 11.0 14.0 0.03 0.00 0.00 68 1027.6
20170423134801 48 253 12.0 14.0 0.03 0.00 0.00 69 1027.5
20170423134301 48 252 12.0 14.0 0.03 0.00 0.00 71 1027.4
20170423133802 48 253 11.0 14.0 0.03 0.00 0.00 72 1027.4
20170423133301 48 255 10.0 14.0 0.03 0.00 0.00 74 1027.4
20170423132801 47 248 13.0 16.0 0.03 0.00 0.00 74 1027.2
20170423132301 47 248 14.0 16.0 0.03 0.00 0.00 71 1027.1
20170423132046 46 252 13.0 16.0 0.03 0.00 0.00 75 1027.2
20170423131808 46 252 13.0 16.0 0.03 0.00 0.00 75 1027.2
20170423131303 46 248 11.0 13.0 0.03 0.00 0.00 78 1027.1
20170423130803 46 259 10.0 14.0 0.03 0.00 0.00 78 1027.2